Chicago, IL

11:36 AM CST on December 05, 2019 (GMT -0600)
Chicago-O'Hare International

Weather History for KORD - November, 2019

Change the Weather History Date:

Sunday, November 17, 2019

  Actual Average Record
Temperature  
Mean Temperature 34 °F 40 °F  
Max Temperature 40 °F 47 °F 74 °F (1975)
Min Temperature 27 °F 32 °F 3 °F (1959)
Degree Days  
Heating Degree Days 32 25  
Month to date heating degree days 566 365  
Since 1 July heating degree days 1017 880  
Cooling Degree Days 0 0  
Month to date cooling degree days 0 0  
Year to date cooling degree days 960 843  
Moisture  
Dew Point 29 °F    
Average Humidity 82    
Maximum Humidity 97    
Minimum Humidity 64    
Precipitation  
Precipitation 0.04 in 0.11 in 1.43 in (1892)
Month to date precipitation 0.36 1.77  
Year to date precipitation 46.48 33.26  
Snow  
Snow 0.00 in 0.10 in 3.80 in (1927)
Month to date snowfall 3.7 0.3  
Since 1 July snowfall 8.3 0.5  
Since 1 September snowfall 8.3 0.5  
Snow Depth 0.00 in    
Sea Level Pressure  
Sea Level Pressure 29.98 in    
Wind  
Wind Speed 6 mph ()    
Max Wind Speed 12 mph    
Max Gust Speed 16 mph    
Visibility 7.8 miles    
Events Rain    
T = Trace of Precipitation, MM = Missing Value Source: Averaged Metar Reports

Daily Weather History Graph

Daily Weather History Graph

Search for Another Location

Airport or City:

Astronomy

Nov. 17, 2019 Rise Set
Actual Time 6:43 AM CST 4:29 PM CST
Civil Twilight 6:13 AM CST 4:59 PM CST
Nautical Twilight 5:39 AM CST 5:33 PM CST
Astronomical Twilight 5:06 AM CST 6:06 PM CST
Moon 9:04 PM CST (11/17) 11:30 AM CST (11/17)
Length of Visible Light 10h 45m
Length of Day
9h 45m
Waning Gibbous, 73% of the Moon is Illuminated
Nov 17
Waning Gibbous
Nov 19
Last Quarter
Nov 26
New
Dec 4
First Quarter
Dec 11
Full

Hourly Weather History & Observations

Time (CST) Temp. Windchill Dew Point Humidity Pressure Visibility Wind Dir Wind Speed Gust Speed Precip Events Conditions
12:51 AM 30.0 °F 23.2 °F 24.1 °F 79% 30.20 in 10.0 mi SSE 6.9 mph - N/A   Scattered Clouds
1:51 AM 28.9 °F 23.9 °F 24.1 °F 82% 30.19 in 10.0 mi SSE 4.6 mph - N/A   Mostly Cloudy
2:51 AM 28.0 °F 21.7 °F 24.1 °F 85% 30.17 in 10.0 mi SSE 5.8 mph - N/A   Mostly Cloudy
3:51 AM 28.0 °F 21.7 °F 24.1 °F 85% 30.14 in 10.0 mi SE 5.8 mph - N/A   Mostly Cloudy
4:51 AM 28.0 °F 20.0 °F 24.1 °F 85% 30.14 in 10.0 mi SE 8.1 mph - N/A   Mostly Cloudy
5:51 AM 28.0 °F 20.8 °F 24.1 °F 85% 30.12 in 10.0 mi SE 6.9 mph - N/A   Mostly Cloudy
6:51 AM 28.0 °F 20.8 °F 24.1 °F 85% 30.10 in 10.0 mi SSE 6.9 mph - N/A   Mostly Cloudy
7:51 AM 28.9 °F 21.1 °F 25.0 °F 85% 30.08 in 10.0 mi South 8.1 mph - N/A   Mostly Cloudy
8:51 AM 32.0 °F 24.8 °F 27.0 °F 82% 30.05 in 10.0 mi SSE 8.1 mph - N/A   Mostly Cloudy
9:51 AM 34.0 °F 27.2 °F 27.0 °F 75% 30.05 in 10.0 mi South 8.1 mph - N/A   Mostly Cloudy
10:51 AM 35.1 °F 30.1 °F 28.0 °F 76% 30.01 in 9.0 mi South 5.8 mph - N/A   Overcast
11:51 AM 37.0 °F 31.6 °F 30.0 °F 76% 29.98 in 9.0 mi SSE 6.9 mph - N/A   Overcast
12:51 PM 39.0 °F 33.4 °F 28.9 °F 67% 29.94 in 9.0 mi South 8.1 mph - N/A   Overcast
1:51 PM 39.9 °F 35.8 °F 30.0 °F 68% 29.92 in 9.0 mi South 5.8 mph - N/A   Overcast
2:51 PM 39.9 °F 35.1 °F 30.0 °F 68% 29.90 in 9.0 mi South 6.9 mph - N/A   Overcast
3:51 PM 39.9 °F 33.9 °F 30.0 °F 68% 29.89 in 9.0 mi SSE 9.2 mph - N/A   Overcast
4:51 PM 39.0 °F 32.8 °F 30.9 °F 73% 29.87 in 9.0 mi SSE 9.2 mph - N/A   Overcast
5:51 PM 39.0 °F 35.7 °F 30.9 °F 73% 29.89 in 9.0 mi SSW 4.6 mph - N/A   Overcast
6:51 PM 37.9 °F 31.5 °F 32.0 °F 79% 29.89 in 7.0 mi South 9.2 mph - 0.00 in Rain Light Rain
7:51 PM 37.0 °F 31.6 °F 34.0 °F 89% 29.88 in 5.0 mi SSW 6.9 mph - 0.00 in Rain Light Rain
8:23 PM 37.0 °F 34.5 °F 34.0 °F 89% 29.84 in 4.0 mi SSW 3.5 mph - 0.02 in Rain Light Rain
8:51 PM 37.0 °F 34.5 °F 35.1 °F 93% 29.86 in 4.0 mi SSW 3.5 mph - 0.03 in Rain Light Rain
9:51 PM 37.0 °F - 35.1 °F 93% 29.85 in 3.0 mi Calm Calm - 0.01 in Rain Light Rain
10:16 PM 36.0 °F 33.3 °F 35.1 °F 97% 29.83 in 3.0 mi South 3.5 mph - 0.00 in Rain Light Rain
10:51 PM 37.0 °F 32.4 °F 35.1 °F 93% 29.84 in 3.0 mi SSW 5.8 mph - 0.00 in   Overcast
11:51 PM 37.0 °F 34.5 °F 35.1 °F 93% 29.82 in 3.0 mi SSW 3.5 mph - N/A   Overcast